Location: Banff
(51.1670°N, 115.5670°W)
Time: 23:07:05
(UTC-07:00)

Amateur Radio Satellites - All Passes

Search period start: 19 November 2017 22:37
Search period end: 20 November 2017 22:37
Location: Banff, 51.1670°N, 115.5670°W

Satellite Date Start Highest point End Downlink Frequencies (MHz)
Time Altitude Azimuth
VELOX 1 19 Nov 22:43:17 22:45:11 13° 53° (NE) 22:47:04 145.980
PRISM 19 Nov 23:01:48 23:05:50 44° 99° (E) 23:09:48 437.425
SO-50 19 Nov 23:02:56 23:07:15 49° 124° (SE) 23:11:37 436.795
UNISAT 6 19 Nov 23:09:50 23:14:07 60° 288° (WNW) 23:18:18 437.425
EO-88 19 Nov 23:10:11 23:11:33 12° 272° (W) 23:12:56 145.990 - 145.960
TIGRISAT 19 Nov 23:14:39 23:18:54 59° 289° (WNW) 23:23:03 435.000
O/OREOS (USA 219) 19 Nov 23:19:39 23:24:12 60° 58° (ENE) 23:28:41 437.305
nSIGHT-1 19 Nov 23:31:42 23:34:52 59° 160° (SSE) 23:38:02 .
POLYITAN 1 19 Nov 23:32:28 23:34:29 13° 87° (E) 23:36:28 437.675
DX 1 19 Nov 23:34:39 23:35:35 11° 51° (NE) 23:36:33 434.975-435.025
LO-87 19 Nov 23:37:03 23:40:20 33° 263° (W) 23:43:40 145.935 - 145.965
FO-29 19 Nov 23:46:25 23:52:20 24° 311° (NW) 23:58:12 435.910
RS-15 19 Nov 23:46:45 23:58:22 44° 352° (N) 00:09:36 29.354- 29.394
SPROUT 19 Nov 23:49:23 23:53:36 59° 71° (ENE) 23:57:50 437.525
ESTCUBE 1 19 Nov 23:49:50 23:54:05 41° 262° (W) 23:58:22 437.505/2401.250
QB50P2 19 Nov 23:54:37 23:58:01 23° 93° (E) 00:01:24 145.880/145.840
NO-84 20 Nov 00:05:37 00:08:07 15° 231° (SW) 00:10:35 435.350 FM
AIST 2D 20 Nov 00:08:59 00:12:32 84° 102° (ESE) 00:16:03 435.315
ISS 20 Nov 00:10:49 00:14:06 79° 166° (SSE) 00:17:22 437.550
VELOX 1 20 Nov 00:16:25 00:20:50 74° 73° (ENE) 00:25:19 145.980
UKube-1 20 Nov 00:17:49 00:20:32 17° 57° (ENE) 00:23:16 .
50 SAT 20 Nov 00:18:17 00:20:33 18° 63° (ENE) 00:22:50 437.505
PCSat 20 Nov 00:28:03 00:32:07 22° 109° (ESE) 00:36:13 145.827
PRISM 20 Nov 00:37:30 00:40:52 24° 298° (WNW) 00:44:14 437.425
SO-50 20 Nov 00:43:43 00:47:52 36° 325° (NW) 00:52:05 436.795
DUCHIFAT 1 20 Nov 00:46:14 00:50:20 52° 100° (E) 00:54:23 145.980
EO-79 20 Nov 00:51:40 00:55:53 76° 103° (ESE) 01:00:05 145.935-145.965
NANOSAT C BR1 20 Nov 00:55:55 01:00:07 75° 103° (ESE) 01:04:17 145.865
O/OREOS (USA 219) 20 Nov 00:59:51 01:03:11 20° 258° (WSW) 01:06:30 437.305
DX 1 20 Nov 01:06:35 01:10:54 62° 71° (ENE) 01:15:15 434.975-435.025
POLYITAN 1 20 Nov 01:06:37 01:10:49 79° 287° (WNW) 01:15:00 437.675
nSIGHT-1 20 Nov 01:07:52 01:11:05 79° 359° (N) 01:14:18 .
MOZHAYETS 4 20 Nov 01:14:32 01:16:41 13° 54° (NE) 01:18:50
SPROUT 20 Nov 01:26:54 01:29:52 18° 270° (W) 01:32:50 437.525
QB50P2 20 Nov 01:29:59 01:33:59 43° 292° (WNW) 01:37:57 145.880/145.840
AIST 2D 20 Nov 01:44:12 01:45:08 11° 302° (WNW) 01:46:04 435.315
BUGSAT 1 20 Nov 01:44:31 01:48:32 55° 101° (E) 01:52:28 437.445
ISS 20 Nov 01:47:20 01:50:37 83° 2° (N) 01:53:54 437.550
50 SAT 20 Nov 01:49:24 01:52:26 36° 261° (W) 01:55:30 437.505
UKube-1 20 Nov 01:51:42 01:56:02 76° 255° (WSW) 02:00:24 .
VELOX 1 20 Nov 01:55:09 01:57:48 15° 271° (W) 02:00:29 145.980
Oscar 19 20 Nov 02:00:39 02:05:36 45° 99° (E) 02:10:32 437.125/150
RS-15 20 Nov 02:02:08 02:13:59 52° 25° (NNE) 02:25:13 29.354- 29.394
PCSat 20 Nov 02:09:33 02:14:58 77° 309° (NW) 02:20:26 145.827
BEESAT 20 Nov 02:14:41 02:18:59 35° 64° (ENE) 02:23:18 436.000
Gurwin Techsat 1B 20 Nov 02:14:43 02:19:49 44° 98° (E) 02:24:53 435.225
DUCHIFAT 1 20 Nov 02:22:33 02:25:41 21° 299° (WNW) 02:28:47 145.980
ITUPSAT 1 20 Nov 02:23:15 02:27:42 40° 66° (ENE) 02:32:09 437.325
SO-50 20 Nov 02:26:38 02:29:35 17° 349° (N) 02:32:32 436.795
EO-79 20 Nov 02:28:36 02:31:08 16° 302° (WNW) 02:33:39 145.935-145.965
NANOSAT C BR1 20 Nov 02:32:46 02:35:19 16° 302° (WNW) 02:37:50 145.865
nSIGHT-1 20 Nov 02:44:08 02:47:19 62° 199° (SSW) 02:50:29 .
POLYITAN 1 20 Nov 02:44:15 02:45:53 12° 306° (NW) 02:47:31 437.675
DX 1 20 Nov 02:44:29 02:47:29 18° 269° (W) 02:50:31 434.975-435.025
MOZHAYETS 4 20 Nov 02:48:32 02:53:06 77° 74° (ENE) 02:57:41
CUBESAT XI-V 20 Nov 02:57:14 03:01:07 28° 63° (ENE) 03:05:01 437.345
BEESAT 3 20 Nov 03:02:57 03:05:29 16° 114° (ESE) 03:08:03 437.485
AO-7 20 Nov 03:07:09 03:13:54 26° 91° (E) 03:20:35 .
M-CUBED/EXP-1 PRIME 20 Nov 03:07:18 03:11:18 31° 101° (ESE) 03:15:26 437.505
KKS-1 20 Nov 03:16:08 03:18:23 14° 54° (NE) 03:20:37 437.445
BUGSAT 1 20 Nov 03:20:39 03:23:31 19° 300° (WNW) 03:26:22 437.445
ISS 20 Nov 03:23:52 03:27:00 44° 205° (SSW) 03:30:07 437.550
Oscar 19 20 Nov 03:40:15 03:44:48 32° 298° (WNW) 03:49:21 437.125/150
STARS 20 Nov 03:45:01 03:46:28 11° 52° (NE) 03:47:56 437.465
ITAMSAT 1 20 Nov 03:50:22 03:54:58 30° 95° (E) 03:59:31 435.822/435.867
BEESAT 20 Nov 03:52:19 03:56:44 37° 263° (W) 04:01:10 436.000
PCSat 20 Nov 03:54:51 03:59:14 24° 332° (NNW) 04:03:39 145.827
Gurwin Techsat 1B 20 Nov 03:54:54 03:59:41 34° 298° (WNW) 04:04:26 435.225
ITUPSAT 1 20 Nov 04:01:20 04:05:36 32° 264° (W) 04:09:54 437.325
SO-50 20 Nov 04:08:37 04:11:43 17° 14° (NNE) 04:14:50 436.795
BEESAT 2 20 Nov 04:10:24 04:13:36 23° 117° (ESE) 04:16:50 435.950
RS-15 20 Nov 04:15:31 04:27:32 80° 234° (SW) 04:38:52 29.354- 29.394
nSIGHT-1 20 Nov 04:20:57 04:23:06 17° 218° (SW) 04:25:15 .
AO-85 20 Nov 04:22:37 04:24:22 13° 110° (ESE) 04:26:10 145.980
MOZHAYETS 4 20 Nov 04:28:08 04:30:49 15° 272° (W) 04:33:30
CUBESAT XI-V 20 Nov 04:33:55 04:38:18 44° 262° (W) 04:42:45 437.345
BEESAT 3 20 Nov 04:38:32 04:42:33 75° 313° (NW) 04:46:34 437.485
M-CUBED/EXP-1 PRIME 20 Nov 04:41:34 04:45:44 40° 299° (WNW) 04:50:02 437.505
KKS-1 20 Nov 04:49:44 04:54:13 80° 73° (ENE) 04:58:44 437.445
AO-7 20 Nov 04:59:16 05:07:40 87° 295° (WNW) 05:16:03 .
DOVE 4 20 Nov 04:59:43 05:04:15 28° 91° (E) 05:08:37 437.250
STRAND 1 20 Nov 05:01:54 05:03:13 11° 47° (NE) 05:04:33 437.568
ISS 20 Nov 05:02:01 05:02:50 11° 223° (SW) 05:03:38 437.550
YUBILEINY 20 Nov 05:14:48 05:22:21 34° 82° (E) 05:29:57 435.215
STARS 20 Nov 05:17:35 05:21:59 66° 72° (ENE) 05:26:25 437.465
ITAMSAT 1 20 Nov 05:29:37 05:34:37 47° 294° (WNW) 05:39:35 435.822/435.867
PCSat 20 Nov 05:41:32 05:44:37 15° 358° (N) 05:47:41 145.827
BEESAT 2 20 Nov 05:47:03 05:51:02 55° 316° (NW) 05:55:03 435.950
SO-50 20 Nov 05:48:57 05:53:19 40° 37° (NE) 05:57:45 436.795
XW-2D 20 Nov 05:55:18 05:57:53 17° 91° (E) 06:00:30 145.860 - 145.880
AO-85 20 Nov 06:00:06 06:04:03 90° 342° (NNW) 06:08:14 145.980
XW-2B 20 Nov 06:09:43 06:12:48 23° 93° (E) 06:15:54 145.730 - 145.750
BEESAT 3 20 Nov 06:17:45 06:20:44 19° 334° (NNW) 06:23:42 437.485
HO-68 20 Nov 06:19:18 06:23:43 17° 84° (E) 06:28:05 435.675
KKS-1 20 Nov 06:28:54 06:31:22 14° 272° (W) 06:33:49 437.445
RS-15 20 Nov 06:29:10 06:38:03 26° 260° (W) 06:46:38 29.354- 29.394
NUDT-PHONESAT 20 Nov 06:29:51 06:33:02 26° 95° (E) 06:36:13 437.300
FO-29 20 Nov 06:34:13 06:39:42 25° 50° (NE) 06:45:33 435.910
XW-2C 20 Nov 06:34:52 06:38:31 42° 98° (E) 06:42:09 145.795 - 145.815
LilacSat-2 20 Nov 06:35:19 06:39:02 46° 99° (E) 06:42:44 437.200
STRAND 1 20 Nov 06:36:20 06:41:18 51° 67° (ENE) 06:46:18 437.568
DOVE 4 20 Nov 06:37:04 06:42:10 50° 292° (WNW) 06:47:04 437.250
XW-2F 20 Nov 06:46:38 06:50:23 53° 100° (E) 06:54:06 145.980 - 146.000
SEEDS 20 Nov 06:47:11 06:48:25 11° 85° (E) 06:49:38 437.485
AO-7 20 Nov 06:52:44 06:59:31 29° 315° (NW) 07:06:18 .
CUTE-I 20 Nov 06:52:47 06:58:03 51° 100° (E) 07:03:15 437.470
STARS 20 Nov 06:55:51 06:58:46 17° 270° (W) 07:01:43 437.465
CUBEBUG 2 20 Nov 06:57:38 06:59:37 13° 87° (E) 07:01:35 437.445
YUBILEINY 20 Nov 07:09:51 07:18:34 68° 284° (WNW) 07:27:25 435.215
ITAMSAT 1 20 Nov 07:12:00 07:12:53 10° 315° (NW) 07:13:47 435.822/435.867
KAITUO 1B 20 Nov 07:16:35 07:20:21 90° 310° (NW) 07:24:08 145.475/437.950
PCSat 20 Nov 07:26:01 07:30:06 21° 24° (NNE) 07:34:10 145.827
BEESAT 2 20 Nov 07:26:51 07:29:36 17° 338° (NNW) 07:32:21 435.950
XW-2D 20 Nov 07:28:39 07:32:20 48° 289° (WNW) 07:36:00 145.860 - 145.880
SO-50 20 Nov 07:29:28 07:33:51 43° 237° (WSW) 07:38:17 436.795
AO-85 20 Nov 07:41:49 07:45:02 22° 334° (NNW) 07:48:25 145.980
XW-2B 20 Nov 07:43:35 07:47:04 36° 292° (WNW) 07:50:35 145.730 - 145.750
CUTE 1.7 + AOD 2 20 Nov 07:47:47 07:52:03 65° 101° (E) 07:56:18 437.475
ZACube-1 20 Nov 07:49:31 07:51:44 14° 88° (E) 07:53:58 437.345
UWE-3 20 Nov 07:55:41 07:59:17 28° 94° (E) 08:02:52 435.000/436.395/437.385
BEESAT 3 20 Nov 07:58:15 07:59:43 12° 358° (N) 08:01:11 437.485
NUDT-PHONESAT 20 Nov 08:03:38 08:06:53 30° 293° (WNW) 08:10:09 437.300
HO-68 20 Nov 08:05:28 08:12:43 74° 105° (ESE) 08:19:54 435.675
XW-2A 20 Nov 08:09:31 08:12:35 32° 97° (E) 08:15:38 145.665 - 145.685
XW-2C 20 Nov 08:09:34 08:12:28 21° 297° (WNW) 08:15:20 145.795 - 145.815
LilacSat-2 20 Nov 08:10:13 08:13:02 20° 297° (WNW) 08:15:51 437.200
STRAND 1 20 Nov 08:16:22 08:20:45 28° 267° (W) 08:25:09 437.568
FO-29 20 Nov 08:16:56 08:23:43 86° 71° (ENE) 08:31:19 435.910
DOVE 4 20 Nov 08:17:16 08:18:39 11° 312° (NW) 08:20:00 437.250
SEEDS 20 Nov 08:20:29 08:24:46 86° 110° (ESE) 08:29:01 437.485
XW-2F 20 Nov 08:21:36 08:24:08 17° 299° (WNW) 08:26:40 145.980 - 146.000
AAUSAT CUBESAT 2 20 Nov 08:30:41 08:34:48 52° 100° (E) 08:38:53 437.432
CUBEBUG 2 20 Nov 08:32:36 08:36:50 77° 286° (WNW) 08:40:58 437.445
CUTE-I 20 Nov 08:33:13 08:37:54 31° 299° (WNW) 08:42:32 437.470
UNISAT 6 20 Nov 08:37:09 08:41:06 30° 65° (ENE) 08:45:00 437.425
AO-73 20 Nov 08:40:04 08:43:56 37° 97° (E) 08:47:48 145.935
TIGRISAT 20 Nov 08:41:47 08:45:46 30° 65° (ENE) 08:49:40 435.000
AO-7 20 Nov 08:46:47 08:49:36 12° 341° (NNW) 08:52:26 .
KAITUO 1B 20 Nov 08:52:28 08:53:44 11° 303° (WNW) 08:54:58 145.475/437.950
Oscar 11 20 Nov 08:57:38 09:01:43 40° 97° (E) 09:05:49 .
BEESAT 2 20 Nov 09:07:15 09:08:53 12° 2° (N) 09:10:30 435.950
PCSat 20 Nov 09:09:13 09:14:37 59° 47° (NE) 09:19:58 145.827
YUBILEINY 20 Nov 09:11:15 09:17:23 20° 311° (NW) 09:23:34 435.215
DELFI C3 20 Nov 09:12:38 09:14:44 14° 88° (E) 09:16:50 145.870
ZACube-1 20 Nov 09:24:23 09:28:32 71° 287° (WNW) 09:32:40 437.345
CUTE 1.7 + AOD 2 20 Nov 09:24:32 09:27:27 18° 300° (WNW) 09:30:22 437.475
AO-85 20 Nov 09:24:45 09:26:58 14° 359° (N) 09:29:15 145.980
UWE-3 20 Nov 09:32:02 09:35:49 35° 293° (WNW) 09:39:35 435.000/436.395/437.385
BEESAT 3 20 Nov 09:36:08 09:38:47 17° 22° (NNE) 09:41:26 437.485
XW-2A 20 Nov 09:42:34 09:45:08 21° 295° (WNW) 09:47:42 145.665 - 145.685
HO-68 20 Nov 09:53:48 09:59:55 31° 307° (NW) 10:06:00 435.675
PRISM 20 Nov 09:55:25 09:59:29 62° 72° (ENE) 10:03:37 437.425
SEEDS 20 Nov 09:57:35 09:59:51 14° 303° (WNW) 10:02:06 437.485
FO-29 20 Nov 10:04:29 10:09:47 23° 276° (W) 10:15:31 435.910
AAUSAT CUBESAT 2 20 Nov 10:06:47 10:09:56 21° 298° (WNW) 10:13:04 437.432
DUCHIFAT 1 20 Nov 10:10:09 10:11:38 12° 54° (NE) 10:13:08 145.980
CUBEBUG 2 20 Nov 10:11:14 10:12:42 12° 306° (NW) 10:14:10 437.445
UNISAT 6 20 Nov 10:13:27 10:17:44 39° 263° (W) 10:21:56 437.425
EO-79 20 Nov 10:14:58 10:17:32 16° 58° (ENE) 10:20:06 145.935-145.965
AO-73 20 Nov 10:16:35 10:20:04 26° 296° (WNW) 10:23:31 145.935
TIGRISAT 20 Nov 10:18:07 10:22:22 38° 263° (W) 10:26:33 435.000
NANOSAT C BR1 20 Nov 10:18:58 10:21:28 16° 57° (ENE) 10:23:58 145.865
POLYITAN 1 20 Nov 10:29:17 10:32:26 21° 61° (ENE) 10:35:34 437.675
Max Valier Satellite 20 Nov 10:29:57 10:33:36 58° 101° (E) 10:37:13 145.860
EO-88 20 Nov 10:30:43 10:34:13 42° 99° (E) 10:37:42 145.990 - 145.960
Oscar 11 20 Nov 10:34:05 10:37:43 27° 296° (WNW) 10:41:22 .
BEESAT 2 20 Nov 10:45:00 10:48:04 20° 26° (NNE) 10:51:07 435.950
DELFI C3 20 Nov 10:45:56 10:49:57 69° 286° (WNW) 10:53:55 145.870
AIST 2D 20 Nov 10:47:34 10:51:00 65° 74° (ENE) 10:54:28 435.315
QB50P2 20 Nov 10:51:38 10:55:29 34° 66° (ENE) 10:59:20 145.880/145.840
PCSat 20 Nov 10:53:03 10:57:43 30° 248° (WSW) 11:02:22 145.827
LO-87 20 Nov 10:59:26 11:01:18 14° 89° (E) 11:03:09 145.935 - 145.965
ZACube-1 20 Nov 11:03:08 11:04:04 11° 306° (NW) 11:04:59 437.345
AO-85 20 Nov 11:05:38 11:08:57 20° 24° (NNE) 11:12:28 145.980
BUGSAT 1 20 Nov 11:06:27 11:08:01 12° 55° (NE) 11:09:35 437.445
BEESAT 3 20 Nov 11:13:13 11:17:09 55° 44° (NE) 11:21:00 437.485
PRISM 20 Nov 11:32:33 11:35:10 16° 270° (W) 11:37:48 437.425
ESTCUBE 1 20 Nov 11:36:50 11:40:48 28° 94° (E) 11:44:43 437.505/2401.250
DUCHIFAT 1 20 Nov 11:42:22 11:46:34 75° 73° (ENE) 11:50:48 145.980
HO-68 20 Nov 11:44:57 11:45:28 10° 331° (NNW) 11:46:00 435.675
Oscar 19 20 Nov 11:45:16 11:48:58 21° 56° (NE) 11:52:41 437.125/150
EO-79 20 Nov 11:48:31 11:52:46 77° 256° (WSW) 11:57:01 145.935-145.965
NANOSAT C BR1 20 Nov 11:52:24 11:56:38 78° 257° (WSW) 12:00:53 145.865
Gurwin Techsat 1B 20 Nov 12:02:53 12:06:53 22° 56° (NE) 12:10:54 435.225
POLYITAN 1 20 Nov 12:03:43 12:07:52 54° 259° (W) 12:12:04 437.675
Max Valier Satellite 20 Nov 12:04:49 12:07:01 15° 299° (WNW) 12:09:12 145.860
EO-88 20 Nov 12:04:55 12:07:36 19° 297° (WNW) 12:10:17 145.990 - 145.960
BEESAT 2 20 Nov 12:22:21 12:26:25 78° 48° (NE) 12:30:26 435.950
AO-7 20 Nov 12:22:47 12:28:19 20° 36° (NE) 12:33:51 .
AIST 2D 20 Nov 12:23:27 12:24:36 11° 272° (W) 12:25:45 435.315
DELFI C3 20 Nov 12:23:34 12:23:55 10° 306° (NW) 12:24:16 145.870
M-CUBED/EXP-1 PRIME 20 Nov 12:26:01 12:27:37 12° 47° (NE) 12:29:16 437.505
QB50P2 20 Nov 12:27:33 12:31:18 30° 265° (W) 12:35:03 145.880/145.840
LO-87 20 Nov 12:31:33 12:35:03 55° 288° (WNW) 12:38:30 145.935 - 145.965
BUGSAT 1 20 Nov 12:38:29 12:42:40 77° 74° (ENE) 12:46:51 437.445
AO-85 20 Nov 12:45:38 12:50:09 63° 45° (NE) 12:55:01 145.980
BEESAT 3 20 Nov 12:51:18 12:54:22 22° 244° (WSW) 12:57:25 437.485
SPROUT 20 Nov 13:05:23 13:09:35 54° 101° (E) 13:13:45 437.525
ESTCUBE 1 20 Nov 13:13:27 13:17:42 40° 293° (WNW) 13:21:56 437.505/2401.250
DUCHIFAT 1 20 Nov 13:20:32 13:22:45 14° 272° (W) 13:24:59 145.980
Oscar 19 20 Nov 13:22:38 13:27:45 77° 256° (WSW) 13:32:55 437.125/150
UKube-1 20 Nov 13:35:07 13:37:00 12° 87° (E) 13:38:51 .
ITAMSAT 1 20 Nov 13:36:37 13:39:44 16° 51° (NE) 13:42:50 435.822/435.867
VELOX 1 20 Nov 13:37:22 13:41:51 72° 103° (ESE) 13:46:18 145.980
O/OREOS (USA 219) 20 Nov 13:37:42 13:41:26 25° 104° (ESE) 13:45:11 437.305
Gurwin Techsat 1B 20 Nov 13:41:00 13:46:19 75° 256° (WSW) 13:51:41 435.225
M-CUBED/EXP-1 PRIME 20 Nov 13:57:39 14:01:17 80° 68° (ENE) 14:05:14 437.505
BEESAT 2 20 Nov 14:01:09 14:03:38 16° 247° (WSW) 14:06:05 435.950
AO-7 20 Nov 14:11:26 14:19:28 57° 60° (ENE) 14:27:32 .
BUGSAT 1 20 Nov 14:16:28 14:18:33 13° 272° (W) 14:20:37 437.445
DX 1 20 Nov 14:25:29 14:29:49 55° 101° (E) 14:34:07 434.975-435.025
AO-85 20 Nov 14:26:29 14:30:20 26° 243° (WSW) 14:34:23 145.980
50 SAT 20 Nov 14:33:20 14:36:35 84° 106° (ESE) 14:39:48 437.505
DOVE 4 20 Nov 14:36:58 14:37:43 10° 47° (NE) 14:38:28 437.250
MOZHAYETS 4 20 Nov 14:39:58 14:41:56 13° 86° (E) 14:43:53
SPROUT 20 Nov 14:41:58 14:45:09 21° 299° (WNW) 14:48:18 437.525
Oscar 19 20 Nov 15:05:49 15:07:58 12° 275° (W) 15:10:07 437.125/150
UKube-1 20 Nov 15:09:16 15:13:38 87° 292° (WNW) 15:17:58 .
ITAMSAT 1 20 Nov 15:13:10 15:18:24 77° 71° (ENE) 15:23:39 435.822/435.867
VELOX 1 20 Nov 15:14:47 15:17:48 18° 302° (WNW) 15:20:49 145.980
O/OREOS (USA 219) 20 Nov 15:16:06 15:20:35 50° 304° (NW) 15:25:06 437.305
YUBILEINY 20 Nov 15:17:05 15:24:02 24° 54° (NE) 15:30:55 435.215
NO-84 20 Nov 15:24:22 15:26:09 13° 127° (SE) 15:28:01 435.350 FM
Gurwin Techsat 1B 20 Nov 15:24:56 15:27:13 13° 276° (W) 15:29:30 435.225
M-CUBED/EXP-1 PRIME 20 Nov 15:35:16 15:36:22 11° 269° (W) 15:37:28 437.505
BEESAT 20 Nov 15:46:38 15:51:05 37° 97° (E) 15:55:30 436.000
ITUPSAT 1 20 Nov 15:55:46 16:00:20 44° 99° (E) 16:04:52 437.325
DX 1 20 Nov 16:02:19 16:05:41 22° 300° (WNW) 16:09:01 434.975-435.025
AO-7 20 Nov 16:04:44 16:12:31 43° 262° (W) 16:20:22 .
DOVE 4 20 Nov 16:09:16 16:14:08 47° 68° (ENE) 16:19:12 437.250
MOZHAYETS 4 20 Nov 16:15:11 16:19:47 88° 114° (ESE) 16:24:22
CUBESAT XI-V 20 Nov 16:24:53 16:29:06 32° 95° (E) 16:33:17 437.345
KAITUO 1B 20 Nov 16:30:15 16:31:13 11° 56° (ENE) 16:32:10 145.475/437.950
KKS-1 20 Nov 16:38:02 16:38:58 11° 85° (E) 16:39:56 437.445
CUTE-I 20 Nov 16:41:14 16:45:34 26° 58° (ENE) 16:49:55 437.470
XW-2D 20 Nov 16:41:27 16:44:06 19° 62° (ENE) 16:46:45 145.860 - 145.880
UKube-1 20 Nov 16:46:45 16:49:00 14° 305° (NW) 16:51:14 .
HO-68 20 Nov 16:53:38 16:59:16 26° 49° (NE) 17:04:55 435.675
ITAMSAT 1 20 Nov 16:54:51 16:58:27 19° 271° (W) 17:02:06 435.822/435.867
XW-2B 20 Nov 16:55:46 16:58:48 24° 65° (ENE) 17:01:52 145.730 - 145.750
NO-84 20 Nov 16:58:57 17:02:44 59° 147° (SSE) 17:06:47 435.350 FM
O/OREOS (USA 219) 20 Nov 16:59:08 17:01:08 13° 326° (NNW) 17:03:08 437.305
CUTE 1.7 + AOD 2 20 Nov 17:12:06 17:14:01 13° 56° (NE) 17:15:56 437.475
YUBILEINY 20 Nov 17:13:28 17:22:24 82° 78° (ENE) 17:31:16 435.215
NUDT-PHONESAT 20 Nov 17:13:37 17:16:40 26° 66° (ENE) 17:19:45 437.300
XW-2C 20 Nov 17:20:42 17:24:15 43° 70° (ENE) 17:27:49 145.795 - 145.815
LilacSat-2 20 Nov 17:21:46 17:25:23 47° 71° (ENE) 17:29:02 437.200
BEESAT 20 Nov 17:24:33 17:28:49 34° 296° (WNW) 17:33:03 436.000
XW-2F 20 Nov 17:31:56 17:35:33 53° 71° (ENE) 17:39:13 145.980 - 146.000
ITUPSAT 1 20 Nov 17:33:54 17:38:01 29° 298° (WNW) 17:42:06 437.325
SEEDS 20 Nov 17:43:06 17:45:39 16° 58° (ENE) 17:48:13 437.485
DOVE 4 20 Nov 17:47:30 17:51:59 31° 268° (W) 17:56:38 437.250
MOZHAYETS 4 20 Nov 17:53:38 17:56:19 16° 304° (NW) 17:59:00
AAUSAT CUBESAT 2 20 Nov 17:54:17 17:54:39 10° 53° (NE) 17:55:00 437.432
CUBEBUG 2 20 Nov 17:59:41 18:03:15 23° 62° (ENE) 18:06:45 437.445
KAITUO 1B 20 Nov 18:00:52 18:04:33 87° 87° (E) 18:08:17 145.475/437.950
CUBESAT XI-V 20 Nov 18:02:12 18:06:31 38° 294° (WNW) 18:10:52 437.345
KKS-1 20 Nov 18:11:48 18:16:19 78° 105° (ESE) 18:20:46 437.445
XW-2D 20 Nov 18:14:21 18:17:58 47° 261° (W) 18:21:37 145.860 - 145.880
CUTE-I 20 Nov 18:19:53 18:25:13 64° 258° (WSW) 18:30:36 437.470
XW-2B 20 Nov 18:29:25 18:32:51 34° 263° (W) 18:36:19 145.730 - 145.750
NO-84 20 Nov 18:36:15 18:40:11 55° 348° (NNW) 18:44:21 435.350 FM
STARS 20 Nov 18:37:49 18:42:12 61° 102° (ESE) 18:46:32 437.465
HO-68 20 Nov 18:38:58 18:46:11 88° 71° (ENE) 18:53:27 435.675
STRAND 1 20 Nov 18:43:48 18:45:22 11° 84° (E) 18:46:56 437.568
RS-15 20 Nov 18:44:28 18:55:31 42° 109° (ESE) 19:06:27 29.354- 29.394
CUTE 1.7 + AOD 2 20 Nov 18:44:58 18:49:10 85° 75° (ENE) 18:53:26 437.475
XW-2A 20 Nov 18:45:23 18:48:10 25° 67° (ENE) 18:50:59 145.665 - 145.685
NUDT-PHONESAT 20 Nov 18:47:12 18:50:27 30° 264° (W) 18:53:43 437.300
ZACube-1 20 Nov 18:49:40 18:53:00 22° 62° (ENE) 18:56:18 437.345
XW-2C 20 Nov 18:55:56 18:58:38 19° 268° (W) 19:01:21 145.795 - 145.815
UWE-3 20 Nov 18:57:01 19:01:13 43° 69° (ENE) 19:05:19 435.000/436.395/437.385
LilacSat-2 20 Nov 18:57:21 18:59:56 17° 269° (W) 19:02:31 437.200
XW-2F 20 Nov 19:07:42 19:09:59 15° 270° (W) 19:12:16 145.980 - 146.000
YUBILEINY 20 Nov 19:11:13 19:18:15 28° 282° (WNW) 19:25:17 435.215
SEEDS 20 Nov 19:16:39 19:20:49 73° 257° (WSW) 19:25:02 437.485
FO-29 20 Nov 19:23:00 19:26:37 14° 77° (ENE) 19:30:10 435.910
AAUSAT CUBESAT 2 20 Nov 19:25:11 19:29:16 65° 73° (ENE) 19:33:25 437.432
CUBEBUG 2 20 Nov 19:35:08 19:39:36 52° 260° (W) 19:43:57 437.445
AO-73 20 Nov 19:40:00 19:44:11 55° 71° (ENE) 19:48:19 145.935
KKS-1 20 Nov 19:49:26 19:52:19 17° 304° (WNW) 19:55:12 437.445
Oscar 11 20 Nov 19:56:59 20:01:11 57° 71° (ENE) 20:05:26 .
DELFI C3 20 Nov 20:02:33 20:05:10 17° 60° (ENE) 20:07:47 145.870
CUTE-I 20 Nov 20:05:07 20:06:21 11° 277° (W) 20:07:35 437.470
NO-84 20 Nov 20:13:57 20:18:00 53° 9° (N) 20:22:11 435.350 FM
STARS 20 Nov 20:14:56 20:18:09 20° 301° (WNW) 20:21:20 437.465
XW-2A 20 Nov 20:18:03 20:20:51 25° 265° (W) 20:23:39 145.665 - 145.685
STRAND 1 20 Nov 20:20:21 20:25:31 71° 103° (ESE) 20:30:36 437.568
CUTE 1.7 + AOD 2 20 Nov 20:23:56 20:25:37 12° 274° (W) 20:27:19 437.475
ZACube-1 20 Nov 20:24:51 20:29:03 49° 261° (W) 20:33:10 437.345
HO-68 20 Nov 20:29:27 20:34:51 22° 272° (W) 20:40:17 435.675
UWE-3 20 Nov 20:34:11 20:37:50 25° 267° (W) 20:41:25 435.000/436.395/437.385
RS-15 20 Nov 20:54:47 21:07:13 80° 315° (NW) 21:19:26 29.354- 29.394
AAUSAT CUBESAT 2 20 Nov 21:02:43 21:05:10 15° 272° (W) 21:07:40 437.432
FO-29 20 Nov 21:05:36 21:13:23 57° 98° (E) 21:20:50 435.910
EO-88 20 Nov 21:12:50 21:16:13 39° 69° (ENE) 21:19:39 145.990 - 145.960
Max Valier Satellite 20 Nov 21:13:11 21:16:46 55° 72° (ENE) 21:20:21 145.860
AO-73 20 Nov 21:17:44 21:20:45 18° 269° (W) 21:23:44 145.935
Oscar 11 20 Nov 21:34:41 21:37:42 18° 270° (W) 21:40:43 .
DELFI C3 20 Nov 21:35:33 21:39:29 61° 258° (WSW) 21:43:28 145.870
LO-87 20 Nov 21:40:23 21:42:20 14° 60° (ENE) 21:44:16 145.935 - 145.965
ISS 20 Nov 21:43:40 21:45:49 16° 141° (SE) 21:47:57 437.550
SO-50 20 Nov 21:49:38 21:52:33 17° 113° (ESE) 21:55:29 436.795
NO-84 20 Nov 21:51:21 21:55:35 73° 209° (SSW) 21:59:50 435.350 FM
UNISAT 6 20 Nov 21:59:42 22:03:30 29° 95° (E) 22:07:14 437.425
STRAND 1 20 Nov 22:00:21 22:04:13 22° 303° (WNW) 22:08:05 437.568
O/OREOS (USA 219) 20 Nov 22:02:48 22:06:22 22° 44° (NE) 22:09:53 437.305
TIGRISAT 20 Nov 22:04:11 22:07:58 30° 95° (E) 22:11:43 435.000
SPROUT 20 Nov 22:30:21 22:32:11 13° 55° (NE) 22:34:00 437.525
